Voltar ao catálogo

CZ-2D Y92 STAGE 2

AtivoPO
NORAD 65946·ROCKET BODY·🇨🇳 China
Este nome de satélite ainda não foi confirmado por fontes oficiais.

Lançado Oct 13, 2025 de Jiuquan Satellite Launch Center

Loading…

Próximas Passagens (próximas 24 horas)

TLE

AtualizadoSource: Space-Track

Época: Sep 14, 2026, 14:45 UTC

1 65946U 25227B   26257.61505635  .00007482  00000-0  23038-3 0  9991
2 65946  80.1557  17.0210 0018381   4.4532 355.6862 15.33343554 51432

Acompanhe CZ-2D Y92 STAGE 2 em tempo real com AllMySat

Download on the App Store